Other Public Products
Issued by NWS Grand Forks, ND

Home | Current Version | Previous Version | Graphics & Text | Print | Product List | Glossary On
Versions: 1 2 3 4 5 6 7 8 9 10 11 12 13 14 15 16 17 18 19 20 21 22 23 24 25 26 27 28 29 30 31 32 33 34 35 36 37 38 39 40 41 42 43 44 45 46 47 48 49 50
000
FPUS83 KFGF 310431
OPUFGF
PRAIRIE TO PINES WEATHER ROUNDUP
NATIONAL WEATHER SERVICE EASTERN NORTH DAKOTA/GRAND FORKS ND
1100 PM CDT THU OCT 30 2014

 **SATELLITE DATA USED TO AUGMENT SKY COVER AT AUTOMATED STATIONS**
 *****  WEATHER ACROSS EASTERN NORTH DAKOTA  *****

CITY           SKY/WX    TMP DP  RH WIND       PRES   REMARKS
GRAND FORKS    CLEAR     22  17  81 NW9       30.58R WCI  12
GRAND FORKS AF CLEAR     24  17  73 N8        30.58R WCI  15
GRAND CITY NWS   N/A     25 N/A N/A N5          N/A  WCI  19
BUXTON           N/A     25  20  82 NW9         N/A  WCI  16
DEVILS LAKE    CLEAR     23  12  63 NE6       30.56S WCI  16
FARGO          CLEAR     28  19  69 N14       30.54R WCI  17
WAHPETON ARPT  CLEAR     28  21  74 N10       30.53R WCI  19
$$

 *****  WEATHER ACROSS CENTRAL AND WESTERN NORTH DAKOTA  *****

CITY           SKY/WX    TMP DP  RH WIND       PRES   REMARKS
JAMESTOWN      NOT AVBL
BISMARCK       CLEAR     23  19  85 NE3       30.58R
MINOT          CLEAR     20  16  84 SW7       30.55R WCI  11
MINOT AFB      CLEAR     14  12  92 W2        30.55R
GARRISON         N/A     21  19  92 CALM      30.56R
WILLISTON      CLOUDY    32  25  75 SE14G22   30.51S WCI  22
DICKINSON      CLOUDY    31  26  82 E15       30.48S WCI  20
HETTINGER      CLOUDY    31  27  85 E12       30.50R WCI  22
$$

 *****  OTHER OBSERVATIONS NORTHEAST NORTH DAKOTA  *****

CITY           SKY/WX    TMP DP  RH WIND       PRES   REMARKS
WALHALLA       FAIR      19  16  86 NW7       30.61R WCI  10
LANGDON        FAIR      14   9  79 N5        30.56S WCI   6
CAVALIER       FAIR      23  16  74 N7        30.60S WCI  15
GRAFTON        FAIR      23  16  74 N8        30.59S WCI  14
CANDO          FAIR      16  14  93 CALM      30.59S
FORT TOTTEN      N/A     28  19  67 NE6       29.95  WCI  22
ROLLA          FAIR      16  14  93 CALM      30.57S
RUGBY          FAIR      21  18  86 E9        30.58R WCI  11
 ***** THE ABOVE OBSERVATIONS ARE NON NWS ARE NOT QUALITY
        CONTROLLED AND MAY MIS-REPORT RAIN FOR SNOW...
$$

 *****  OTHER OBSERVATIONS SOUTHEAST NORTH DAKOTA *****

CITY           SKY/WX    TMP DP  RH WIND       PRES   REMARKS
COOPERSTOWN    NOT AVBL
VALLEY CITY    FAIR      23  18  80 NW10      30.57R WCI  12
OAKES            N/A     25  21  86 N10       30.56R WCI  15
GWINNER        CLEAR     28  19  69 N9        30.56R WCI  20
SHEYENNE NWR     N/A     26  16  66 N5        29.95  WCI  20
BUFFALO        NOT AVBL
WYNDMERE         N/A     27  19  74 N7          N/A  WCI  19
 ***** THE ABOVE OBSERVATIONS ARE NON NWS ARE NOT QUALITY
       CONTROLLED AND MAY MIS-REPORT RAIN FOR SNOW...
$$

  *****  WEATHER ACROSS NORTHERN MINNESOTA  *****

CITY           SKY/WX    TMP DP  RH WIND       PRES   REMARKS
FLAG ISLAND    CLEAR     30  19  64 NE16      30.51R WCI  19
WARROAD        CLOUDY    27  19  74 NW8       30.52R WCI  18
ROSEAU         CLEAR     25  18  74 NW7       30.54R WCI  17
HALLOCK        CLEAR     23  18  80 NW8       30.58R WCI  14
THF RVR FALLS  CLEAR     27  18  69 N10       30.53R WCI  17
HALSTAD          N/A     23  16  74 N9          N/A  WCI  13
FOSSTON        CLEAR     21  18  86 N8        30.51R WCI  12
BAUDETTE       CLOUDY    30  17  58 N12       30.48R WCI  20
WASKISH        MOCLDY    28  18  64 CALM      30.47S
CROOKSTON      CLEAR     25  19  80 N10       30.57R WCI  15
$$
  *****  WEATHER ACROSS CENTRAL AND WEST MINNESOTA  *****

CITY           SKY/WX    TMP DP  RH WIND       PRES   REMARKS
BEMIDJI        CLOUDY    29  18  62 N13G18    30.46R WCI  19
PARK RAPIDS    MOCLDY    27  17  66 N13       30.44R WCI  16
WADENA         CLEAR     27  18  69 N9        30.45R WCI  17
DETROIT LAKES  FAIR      28  23  80 N12       30.50R WCI  18
MOORHEAD       CLEAR     25  23  93 N9        30.56R WCI  15
FERGUS FALLS   CLEAR     28  18  64 N9        30.52R WCI  20
ELBOW LAKE     FAIR      28  21  74 N12       30.48R WCI  18
MORRIS MN      CLEAR     28  21  74 N14       30.47R WCI  17
STAPLES        CLEAR     27  16  63 N8        30.44R WCI  18
WHEATON        CLEAR     27  19  74 NW12G17   30.54R WCI  16
$$
  *****  WEATHER ELSEWHERE ACROSS MINNESOTA  *****

CITY           SKY/WX    TMP DP  RH WIND       PRES   REMARKS
DULUTH         PTCLDY    29  17  61 N22G38    30.27R WCI  15
INTRNTL FALLS  CLOUDY    29  17  61 N15G26    30.44R WCI  18
ELY            MOCLDY    25  19  80 NW9       30.34R WCI  15
CLOQUET        CLOUDY    28  16  59 N21G32    30.33R WCI  15
BRAINERD       CLEAR     29  15  56 N13G24    30.41R WCI  19
HIBBING        CLOUDY    29  16  58 N17G25    30.36R WCI  17
ALEXANDRIA     CLEAR     30  17  58 N18G29    30.44R WCI  18
SAINT CLOUD    CLEAR     33  13  43 N14       30.39R WCI  23
MINNEAPOLIS    PTCLDY    34  13  41 NW28G33   30.34R WCI  21
$$

  *****  WEATHER ACROSS SOUTH DAKOTA  *****

CITY           SKY/WX    TMP DP  RH WIND       PRES   REMARKS
SIOUX FALLS    MOCLDY    32  21  64 N22G36    30.47R WCI  19
BROOKINGS      NOT AVBL
WATERTOWN      CLEAR     26  21  81 N12       30.48R WCI  16
HURON          CLEAR     29  20  69 N9        30.54R WCI  20
SISSETON         N/A     26  22  84 N10       30.52R WCI  16
ABERDEEN       CLEAR     25  20  81 N9        30.55R WCI  15
MITCHELL       CLOUDY    35  24  64 N21       30.53R WCI  24
PIERRE         CLOUDY    34  26  72 NE14      30.54R WCI  25
MOBRIDGE       PTCLDY    27  22  81 N7        30.55R WCI  19
RAPID CITY     CLOUDY    33  30  88 CALM      30.48R
$$

  *****  SOME WEATHER IN NEARBY STATES *****

CITY           SKY/WX    TMP DP  RH WIND       PRES   REMARKS
GLASGOW MT     CLOUDY    35  29  78 SE23      30.37F WCI  23
GREAT FALLS MT CLOUDY    45  33  63 S7        30.05F
CHEYENNE WY    CLEAR     37  27  67 NW3       30.41R
SCOTTSBLUFF NE CLEAR     37  31  78 E7        30.43R
OMAHA NE       CLOUDY    45  35  68 N25G32    30.35R
DES MOINES IA  CLOUDY    49  37  63 N21G29    30.23R
DAVENPORT IA   CLOUDY    46  38  73 NW6       30.12R
CHICAGO IL     CLOUDY    46  36  68 W7        30.04F
EAU CLAIRE WI  CLOUDY    35  19  52 N12G26    30.22R
LA CROSSE WI   CLOUDY    44  29  55 N24G35    30.16R
$$

  *****  SOME NATIONAL WEATHER *****

CITY           SKY/WX    TMP DP  RH WIND       PRES   REMARKS
LA GUARDIA NY  CLEAR     49  36  61 NW10      30.01F
RALEIGH NC     CLEAR     49  43  80 NE5       30.00S
ATLANTA GA     CLEAR     51  40  65 W3        29.98S
NEW ORLEANS LA CLEAR     58  51  78 W3        30.05S
OKLAHOMA CITY  CLEAR     57  36  45 N7        30.22R
ALBUQUERQUE NM CLEAR     60  23  24 E12       30.31R
SALT LAKE CITY MOCLDY    49  40  71 SE8       30.10F
LOS ANGELES CA PTCLDY    66  62  86 W9        29.96S
BOISE ID       MOCLDY    55  41  59 E5        29.91F
SEATTLE WA     LGT RAIN  55  53  93 S7        29.79R
$$

*** WEATHER ACROSS MANITOBA...SASKATCHEWAN AND ONTARIO ***
                ***ONTARIO***

CITY           SKY/WX    TMP DP  RH WIND       PRES   REMARKS
GERALDTON      LGT SNOW  25  23  93 N9        30.22R DRFTSNOWWCI  15
THUNDER BAY    CLOUDY    30  23  74 N13       30.28R WCI  20
SIOUX LOOKOUT  FLURRIES  27  21  80 N10       30.43R WCI  17
TORONTO        CLOUDY    43  36  75 N3        30.01F
BIG TROUT LK   CLOUDY    25  21  86 NW10G17   30.41R WCI  15
PICKLE LAKE    NOT AVBL
DRYDEN         CLOUDY    25  19  80 N8        30.46R WCI  16
KENORA         FLURRIES  27  18  69 N8G17     30.50R WCI  18
$$
                *** MANITOBA***

CITY           SKY/WX    TMP DP  RH WIND       PRES   REMARKS
BRANDON        CLEAR     18  12  79 E3        30.59S
DAUPHIN        CLEAR     19  18  93 S2        30.59S
ISLAND LAKE    PTCLDY    25  16  68 NW8       30.52F WCI  16
PILOT MOUND      N/A     18  12  79 N6          N/A  WCI   9
THE PAS        CLEAR     21  18  86 S8        30.51F WCI  12
THOMPSON       CLEAR     10   9  92 CALM      30.49S
WINNIPEG       MOCLDY    21  16  79 N3        30.60R
LYNN LAKE      PTCLDY    21  18  86 S7        30.40F WCI  13
CHURCHILL      CLEAR     14  12  92 W8        30.44F WCI   3
GILLAM         CLEAR     18  12  79 N3        30.49F
$$
                ***SASKATCHEWAN***

CITY           SKY/WX    TMP DP  RH WIND       PRES   REMARKS
ESTEVAN        CLEAR     21  19  93 SE7       30.53S WCI  13
KINDERSLEY     CLOUDY    34  30  86 SE24G32   30.17F WCI  21
LLOYDMINSTER   CLOUDY    30  27  86 SE22G31   30.11F WCI  17
PRINCE ALBERT  PTCLDY    23  21  93 SE7       30.39  WCI  15
REGINA         MOCLDY    27  23  86 SE15G22   30.47S WCI  15



USA.gov is the U.S. government's official web portal to all federal, state and local government web resources and services.